TimeCDT,TemperatureF,Dew PointF,Humidity,Sea Level PressureIn,VisibilityMPH,Wind Direction,Wind SpeedMPH,Gust SpeedMPH,PrecipitationIn,Events,Conditions,WindDirDegrees,DateUTC
12:15 AM,74.5,63.1,68,30.06,10.0,NW,3.5,-,N/A,,Clear,320,2013-08-30 05:15:00
12:35 AM,74.3,63.0,68,30.06,10.0,NW,4.6,-,N/A,,Clear,320,2013-08-30 05:35:00
12:55 AM,73.6,63.0,69,30.06,10.0,Calm,Calm,-,N/A,,Clear,0,2013-08-30 05:55:00
1:15 AM,72.7,63.7,73,30.06,10.0,Calm,Calm,-,N/A,,Clear,0,2013-08-30 06:15:00
1:35 AM,72.9,63.5,72,30.06,10.0,Calm,Calm,-,N/A,,Clear,0,2013-08-30 06:35:00
1:55 AM,71.6,63.7,76,30.06,10.0,WNW,3.5,-,N/A,,Clear,300,2013-08-30 06:55:00
2:15 AM,71.8,63.5,75,30.06,10.0,Calm,Calm,-,N/A,,Clear,0,2013-08-30 07:15:00
2:35 AM,70.9,63.5,77,30.06,10.0,West,3.5,-,N/A,,Clear,280,2013-08-30 07:35:00
2:55 AM,71.6,63.7,76,30.06,10.0,Calm,Calm,-,N/A,,Clear,0,2013-08-30 07:55:00
3:15 AM,71.4,63.5,76,30.06,10.0,Calm,Calm,-,N/A,,Clear,0,2013-08-30 08:15:00
3:35 AM,72.0,63.5,75,30.06,10.0,Calm,Calm,-,N/A,,Clear,0,2013-08-30 08:35:00
3:55 AM,71.2,63.1,75,30.05,10.0,Calm,Calm,-,N/A,,Clear,0,2013-08-30 08:55:00
4:15 AM,72.1,63.1,73,30.05,10.0,Calm,Calm,-,N/A,,Clear,0,2013-08-30 09:15:00
4:35 AM,71.4,63.1,75,30.05,10.0,Calm,Calm,-,N/A,,Clear,0,2013-08-30 09:35:00
4:55 AM,71.4,63.5,76,30.05,10.0,WNW,3.5,-,N/A,,Scattered Clouds,290,2013-08-30 09:55:00
5:15 AM,73.6,63.7,71,30.05,10.0,West,3.5,-,N/A,,Mostly Cloudy,280,2013-08-30 10:15:00
5:35 AM,73.4,63.5,71,30.06,10.0,Calm,Calm,-,N/A,,Scattered Clouds,0,2013-08-30 10:35:00
5:55 AM,72.5,63.7,74,30.06,10.0,Calm,Calm,-,N/A,,Mostly Cloudy,0,2013-08-30 10:55:00
6:15 AM,71.6,63.5,76,30.06,10.0,Calm,Calm,-,N/A,,Scattered Clouds,0,2013-08-30 11:15:00
6:35 AM,71.6,63.5,76,30.06,10.0,Calm,Calm,-,N/A,,Clear,0,2013-08-30 11:35:00
6:55 AM,70.2,63.7,80,30.07,10.0,Calm,Calm,-,N/A,,Clear,0,2013-08-30 11:55:00
7:15 AM,69.8,63.5,80,30.08,10.0,Calm,Calm,-,N/A,,Scattered Clouds,0,2013-08-30 12:15:00
7:35 AM,70.3,63.5,79,30.08,10.0,Calm,Calm,-,N/A,,Scattered Clouds,0,2013-08-30 12:35:00
7:55 AM,70.2,64.0,81,30.08,10.0,Calm,Calm,-,N/A,,Clear,0,2013-08-30 12:55:00
8:55 AM,76.5,64.4,66,30.09,10.0,West,5.8,-,N/A,,Clear,260,2013-08-30 13:55:00
9:15 AM,78.3,65.3,64,30.09,10.0,West,4.6,-,N/A,,Clear,260,2013-08-30 14:15:00
9:35 AM,80.1,65.3,61,30.09,10.0,WSW,5.8,-,N/A,,Clear,250,2013-08-30 14:35:00
9:55 AM,82.4,64.2,54,30.10,10.0,SW,5.8,-,N/A,,Clear,230,2013-08-30 14:55:00
10:15 AM,84.0,64.2,51,30.10,10.0,WSW,5.8,-,N/A,,Clear,240,2013-08-30 15:15:00
10:35 AM,85.6,62.2,45,30.09,10.0,WSW,5.8,-,N/A,,Clear,250,2013-08-30 15:35:00
10:55 AM,87.4,61.2,41,30.09,10.0,West,5.8,-,N/A,,Clear,270,2013-08-30 15:55:00
11:15 AM,88.7,60.3,38,30.09,10.0,West,3.5,-,N/A,,Clear,260,2013-08-30 16:15:00
11:35 AM,89.4,59.2,36,30.08,10.0,Calm,Calm,-,N/A,,Clear,0,2013-08-30 16:35:00
11:55 AM,90.1,58.3,34,30.08,10.0,NW,3.5,-,N/A,,Clear,320,2013-08-30 16:55:00
12:15 PM,89.8,58.3,34,30.07,10.0,NW,3.5,-,N/A,,Clear,320,2013-08-30 17:15:00
12:35 PM,91.0,58.3,33,30.07,10.0,SSE,3.5,-,N/A,,Clear,150,2013-08-30 17:35:00
12:55 PM,90.3,58.1,34,30.06,10.0,Calm,Calm,-,N/A,,Scattered Clouds,0,2013-08-30 17:55:00
1:15 PM,93.7,57.2,29,30.05,10.0,East,4.6,-,N/A,,Scattered Clouds,90,2013-08-30 18:15:00
1:35 PM,94.3,57.2,29,30.04,10.0,South,5.8,-,N/A,,Clear,170,2013-08-30 18:35:00
1:55 PM,94.8,56.7,28,30.03,10.0,Calm,Calm,-,N/A,,Scattered Clouds,0,2013-08-30 18:55:00
2:15 PM,96.6,55.8,25,30.02,10.0,South,3.5,-,N/A,,Scattered Clouds,180,2013-08-30 19:15:00
2:35 PM,95.5,55.8,26,30.01,10.0,North,3.5,-,N/A,,Scattered Clouds,10,2013-08-30 19:35:00
2:55 PM,94.3,55.2,27,30.01,10.0,Calm,Calm,-,N/A,,Clear,0,2013-08-30 19:55:00
3:15 PM,96.1,56.5,26,29.99,10.0,SW,5.8,-,N/A,,Scattered Clouds,230,2013-08-30 20:15:00
3:35 PM,96.3,56.3,26,29.98,10.0,East,5.8,-,N/A,,Scattered Clouds,100,2013-08-30 20:35:00
3:55 PM,96.1,55.6,26,29.97,10.0,ENE,3.5,-,N/A,,Scattered Clouds,70,2013-08-30 20:55:00
4:15 PM,97.3,56.3,25,29.97,10.0,SSE,4.6,-,N/A,,Mostly Cloudy,150,2013-08-30 21:15:00
4:35 PM,96.6,56.3,26,29.96,10.0,SSE,6.9,-,N/A,,Mostly Cloudy,150,2013-08-30 21:35:00
4:55 PM,95.2,55.9,27,29.96,10.0,Calm,Calm,-,N/A,,Mostly Cloudy,0,2013-08-30 21:55:00
5:15 PM,95.9,56.1,26,29.95,10.0,Calm,Calm,-,N/A,,Overcast,0,2013-08-30 22:15:00
5:35 PM,95.2,55.9,27,29.95,10.0,Calm,Calm,-,N/A,,Mostly Cloudy,0,2013-08-30 22:35:00
5:55 PM,97.0,56.1,25,29.95,10.0,East,8.1,-,N/A,,Overcast,90,2013-08-30 22:55:00
6:15 PM,95.4,55.6,26,29.95,10.0,East,4.6,-,N/A,,Mostly Cloudy,90,2013-08-30 23:15:00
6:35 PM,94.1,55.8,27,29.95,10.0,Calm,Calm,-,N/A,,Scattered Clouds,0,2013-08-30 23:35:00
6:55 PM,93.9,56.3,28,29.95,10.0,South,3.5,-,N/A,,Scattered Clouds,170,2013-08-30 23:55:00
7:15 PM,94.1,56.1,28,29.94,10.0,Calm,Calm,-,N/A,,Mostly Cloudy,0,2013-08-31 00:15:00
7:35 PM,92.5,57.0,30,29.95,10.0,South,5.8,-,N/A,,Overcast,170,2013-08-31 00:35:00
7:55 PM,91.4,57.2,31,29.95,10.0,SSE,3.5,-,N/A,,Mostly Cloudy,150,2013-08-31 00:55:00
8:15 PM,90.0,57.6,33,29.96,10.0,Calm,Calm,-,N/A,,Scattered Clouds,0,2013-08-31 01:15:00
8:35 PM,88.2,58.1,36,29.96,10.0,Calm,Calm,-,N/A,,Clear,0,2013-08-31 01:35:00
8:55 PM,87.1,59.0,39,29.96,10.0,Calm,Calm,-,N/A,,Clear,0,2013-08-31 01:55:00
9:15 PM,86.2,59.5,40,29.96,10.0,Calm,Calm,-,N/A,,Clear,0,2013-08-31 02:15:00
9:35 PM,82.9,60.3,46,29.97,10.0,Calm,Calm,-,N/A,,Clear,0,2013-08-31 02:35:00
9:55 PM,81.7,61.0,49,29.97,10.0,Calm,Calm,-,N/A,,Clear,0,2013-08-31 02:55:00
10:15 PM,80.2,62.6,55,29.97,10.0,Calm,Calm,-,N/A,,Clear,0,2013-08-31 03:15:00
10:35 PM,80.2,62.8,55,29.97,10.0,Calm,Calm,-,N/A,,Clear,0,2013-08-31 03:35:00
10:55 PM,78.8,63.0,58,29.97,10.0,Calm,Calm,-,N/A,,Clear,0,2013-08-31 03:55:00
11:15 PM,78.4,63.5,60,29.97,10.0,Calm,Calm,-,N/A,,Clear,0,2013-08-31 04:15:00
11:35 PM,79.3,63.0,57,29.97,10.0,Calm,Calm,-,N/A,,Clear,0,2013-08-31 04:35:00
11:55 PM,77.4,63.9,63,29.97,10.0,Calm,Calm,-,N/A,,Clear,0,2013-08-31 04:55:00